Simultaneous Nadir Overpasses (SNOs) Predictions

Prediction of SNOs between FY3D and AQUA Satellite Orbit:

Table of predicted SNOs for the next 14.0 days since TLE Epoch: 9/12/2025
Index Date (FY3D) Time (FY3D) Lat,Lon (FY3D) SZA (FY3D ) Date (AQUA) Time (AQUA) Lat,Lon (AQUA) SZA (AQUA ) Distance(km) Time Diff (sec)
1 09/13/2025 07:56:10 79.46, 52.14 75.85 09/13/2025 07:56:36 79.47, 52.05 75.86 1.86 26
2 09/13/2025 08:46:47 -79.24,-138.64 104.40 09/13/2025 08:45:47 -79.24,-138.67 104.40 0.75 60
3 09/15/2025 17:26:52 79.49, -90.67 76.80 09/15/2025 17:27:13 79.49, -90.67 76.79 0.13 21
4 09/15/2025 18:17:29 -79.26, 78.58 103.46 09/15/2025 18:16:24 -79.26, 78.63 103.47 1.16 65
5 09/18/2025 02:57:32 79.45, 127.04 77.67 09/18/2025 02:57:48 79.45, 127.00 77.67 0.82 16
6 09/18/2025 03:48:09 -79.22, -63.69 102.59 09/18/2025 03:46:59 -79.22, -63.69 102.59 0.33 70
7 09/20/2025 12:28:14 79.48, -15.82 78.63 09/20/2025 12:28:24 79.47, -15.73 78.62 1.80 10
8 09/20/2025 13:17:43 -76.62, 168.24 104.14 09/20/2025 13:16:29 -76.37, 167.12 104.44 39.71 74
9 09/22/2025 21:58:53 79.45,-158.14 79.52 09/22/2025 21:58:57 79.44,-158.08 79.51 1.52 4



Historial Predications of SNOs between FY3D and AQUA
